Weather in Tagirkent-Kazmalyar

Russia / Republic of Dagestan     41°48′38″N   48°30′35″E
temp.,
°C
wind,
m/s
gust,
m/s
humid.,
%
clouds,
%
prec.,
mm/h
press.,
hPa
HPBL,
m
16 april, fri
fri1600:00+11s2269100 0.0 101817
03:00+12sw215764 0.0 101810
06:00+12wsw22605 0.0 101918
09:00+18n33475 0.0 1020529
12:00+19ne43450 0.0 1020740
15:00+18e44465 0.0 1019664
18:00+13ese22680 0.0 102035
21:00+11ssw227130 0.0 102011
17 april, sat
sat1700:00+11s22705 0.0 101910
03:00+10wsw11720 0.0 101910
06:00+11wsw117014 0.0 101910
09:00+19e324980 0.0 1018456
12:00+20e444928 0.0 1017666
15:00+17nne3456100 0.0 1016226
18:00+12nnw4976100 0.0 1018227
21:00+13wnw336879 0.0 102048
18 april, sun
sun1800:00+12wnw227188 0.0 101913
03:00+11nw117554 0.0 101811
06:00+12nw397773 0.0 1020292
09:00+15n1169100 0.0 1019329
12:00+15n2267100 0.0 1018388
15:00+16nne2161100 0.0 1016364
18:00+12nnw22675 0.0 101635
21:00+12wnw2263100 0.0 101724
19 april, mon
mon1900:00+12wsw2271100 0.1 101717
03:00+11w2279100 0.1 101715
06:00+13wnw2275100 0.0 101722
09:00+18nnw22525 0.0 1018385
12:00+20ne32415 0.0 1017525
15:00+20ene324351 0.0 1015394
18:00+16ese225967 0.0 101529
21:00+14sse226218 0.0 101415
20 april, tue
tue2000:00+13s226063 0.0 101312
03:00+12sw1162100 0.0 101110
06:00+14sw1164100 0.0 101012
09:00+19ese3454100 0.0 1008309
12:00+20e335599 0.0 1006283
15:00+20ene2258100 0.0 1004216
18:00+15nnw4676100 0.0 1005133
21:00+13nw31477100 0.0 1012453